Location: Sauerland
(51.1981°N, 7.8053°E)
Time: 12:54:34
(UTC+01:00)

ISS - Visible Passes

Search period start: 22 March 2019 00:00
Search period end: 01 April 2019 01:00
Orbit: 406 x 411 km, 51.6° (Epoch: 22 March)

Date Brightness Start Highest point End Pass type
(mag) Time Alt. Az. Time Alt. Az. Time Alt. Az.
22 Mar -1.8 19:38:25 10° SSE 19:40:02 13° SE 19:40:45 12° SE visible
22 Mar -1.3 21:12:50 10° SW 21:13:32 15° SW 21:13:32 15° SW visible
23 Mar -3.2 20:22:03 10° SW 20:25:06 35° SSE 20:25:12 35° SSE visible
24 Mar -2.5 19:31:27 10° SSW 19:34:11 24° SSE 19:36:40 11° E visible
24 Mar -2.8 21:07:08 10° WSW 21:09:25 41° WSW 21:09:25 41° WSW visible
25 Mar -3.8 20:16:09 10° WSW 20:19:24 59° SSE 20:20:44 31° E visible
25 Mar -1.1 21:52:39 10° W 21:53:29 17° W 21:53:29 17° W visible
26 Mar -3.3 19:25:16 10° SW 19:28:24 42° SSE 19:31:33 10° E visible
26 Mar -3.8 21:01:33 10° W 21:04:40 77° WNW 21:04:40 77° WNW visible
27 Mar -3.9 20:10:27 10° WSW 20:13:46 85° SSE 20:15:45 22° E visible
27 Mar -1.5 21:47:04 10° W 21:48:29 23° W 21:48:29 23° W visible
28 Mar -3.9 20:55:57 10° W 20:59:15 81° N 20:59:29 74° ENE visible
29 Mar -3.8 20:04:48 10° W 20:08:07 81° N 20:10:27 18° E visible
29 Mar -2.0 21:41:25 10° W 21:43:11 29° W 21:43:11 29° W visible
30 Mar -3.9 20:50:17 10° W 20:53:35 87° SSW 20:54:05 62° ESE visible
31 Mar -3.8 20:59:08 10° W 21:02:27 83° N 21:04:59 16° E visible
31 Mar -2.1 22:35:44 10° W 22:37:42 29° WSW 22:37:42 29° WSW visible
